AirNav   ProFlight Series 2 Aviation Headset
 
 1485 users online  

9MO8 Owensville Ambulance District Heliport
Owensville, Missouri, USA

GOING TO OWENSVILLE?


FAA INFORMATION EFFECTIVE 16 JULY 2020

Location

FAA Identifier: 9MO8
Lat/Long: 38-21-13.9500N 091-29-57.2400W
38-21.232500N 091-29.954000W
38.3538750,-91.4992333
(estimated)
Elevation: 900 ft. / 274 m (estimated)
Variation: 03E (1985)
Time zone: UTC -5 (UTC -6 during Standard Time)
Zip code: 65066

Heliport Operations

Heliport use: Private use, MEDICAL USE.
Activation date: 06/1991
Control tower: no
ARTCC: KANSAS CITY CENTER
FSS: COLUMBIA FLIGHT SERVICE STATION
Attendance: UNATNDD
Wind indicator: yes
Segmented circle: no
Lights: FOR PERIMETER LGTS CALL 314-437-4353.

Heliport Communications

WX AWOS-3 at UUV (17 nm SE): 119.375 (573-860-2596)
WX ASOS at VIH (19 nm SW): 119.025 (573-299-4419)

Nearby radio navigation aids

VOR radial/distance  VOR name  Freq  Var
VIHr033/15.5VICHY VOR/DME117.7006E
FTZr226/32.1FORISTELL VORTAC110.8005E

Heliport Services

Runway Information

Helipad H1

Dimensions: 50 x 50 ft. / 15 x 15 m
Surface: concrete
Runway edge lights: PERI
Latitude: 38-21.232500N
Longitude: 091-29.954000W
Elevation: 900.0 ft.
Traffic pattern: leftleft

Heliport Ownership and Management from official FAA records

Ownership: Privately-owned
Owner: OWENSVILLE AREA AMBULANCE DIS
P O BOX 139
OWENSVILLE, MO 65066
Phone 314-437-4353
Manager: KAREN HUBENTHAL
P O BOX 139
OWENSVILLE, MO 65066
Phone 314-437-4353

Additional Remarks

OWNER DESIRES ARPT NOT BE CHARTED.
FOR CD CTC KANSAS CITY ARTCC AT 913-254-8508.

Instrument Procedures

There are no published instrument procedures at 9MO8.

Some nearby airports with instrument procedures:

KUUV - Sullivan Regional Airport (17 nm SE)
KUBX - Cuba Municipal Airport (17 nm S)
KVIH - Rolla National Airport (19 nm SW)
KFYG - Washington Regional Airport (28 nm NE)
KJEF - Jefferson City Memorial Airport (34 nm NW)
 
Loc | Ops | Rwys | IFR | FBO | Links
Com | Nav | Svcs | Stats | Notes
Area around 9MO8 (Owensville Ambulance District Heliport)
 
Road maps at: MapQuest Bing Google
 
Aerial photo
No photo
 
Sectional chart

 
Airport distance calculator
Flying to Owensville Ambulance District Heliport? Find the distance to fly.

From to 9MO8

Sunrise and sunset
Times for 07-Aug-2020
 Local
(UTC-5)
 Zulu
(UTC)
Morning civil twilight05:4610:46
Sunrise06:1511:15
Sunset20:0801:08
Evening civil twilight20:3701:37

Current date and time
Zulu (UTC)  07-Aug-2020 16:16:29
Local (UTC-5)  07-Aug-2020 11:16:29
 
METAR
KVIH 
18nm SW 
071553Z AUTO 19009KT 10SM BKN065 25/19 A3016 RMK AO2 SLP203 T02500189
KFYG 
28nm NE 
071555Z AUTO 15007KT 10SM CLR 25/18 A3014 RMK AO2
KJEF 
34nm NW 
071553Z 17009KT 10SM CLR 26/18 A3012 RMK AO2 SLP186 T02610178
TAF
KCOU 
44nm NW 
071120Z 0712/0812 14008KT P6SM FEW050 FM080000 15006KT P6SM FEW250
KSUS 
44nm NE 
071120Z 0712/0812 14006KT P6SM FEW050 FM080000 VRB04KT P6SM FEW250
NOTAMs
Click for the latest NOTAMs
NOTAMs are issued by the DoD/FAA and will open in a separate window not controlled by AirNav.

 

 
 

Would you like to see your business listed on this page?

 If your business provides an interesting product or service to pilots, flight crews, aircraft, or users of the Owensville Ambulance District Heliport, you should consider listing it here.  To start the listing process, click on the button below
 
Add a business
 

Other Pages about Owensville Ambulance District Heliport

Update a link
 
Copyright © AirNav, LLC. All rights reserved. Privacy Policy  Contact